| time (UTC) | temp C | wind direction | speed KPH | gust KPH | rain 1hr cm | rain 24hr cm | rain mn cm | humidity % | barometer mb |
| 20260505111116 | 12 | 229 | 4.8 | 12.9 | 0.00 | 0.00 | 0.00 | 88 | 1013.2 |
| 20260505100903 | 11 | 211 | 6.4 | 16.1 | 0.00 | 0.00 | 0.00 | 89 | 1013.0 |
| 20260505100432 | 11 | 218 | 6.4 | 16.1 | 0.00 | 0.00 | 0.00 | 89 | 1012.9 |
| 20260505095403 | 11 | 219 | 8.0 | 14.5 | 0.00 | 0.00 | 0.00 | 89 | 1012.9 |
| 20260505094503 | 11 | 224 | 6.4 | 14.5 | 0.00 | 0.00 | 0.00 | 89 | 1012.8 |
| 20260505093603 | 11 | 214 | 6.4 | 16.1 | 0.00 | 0.00 | 0.00 | 89 | 1012.8 |
| 20260505092703 | 11 | 213 | 6.4 | 16.1 | 0.00 | 0.00 | 0.00 | 89 | 1012.6 |
| 20260505092232 | 11 | 213 | 8.0 | 14.5 | 0.00 | 0.00 | 0.00 | 89 | 1012.6 |
| 20260505091333 | 11 | 209 | 8.0 | 17.7 | 0.00 | 0.00 | 0.00 | 89 | 1012.7 |
| 20260505090217 | 11 | 198 | 6.4 | 16.1 | 0.00 | 0.00 | 0.00 | 89 | 1012.6 |
| 20260505085616 | 11 | 223 | 6.4 | 16.1 | 0.00 | 0.00 | 0.00 | 89 | 1012.6 |
| 20260505084503 | 11 | 203 | 4.8 | 12.9 | 0.00 | 0.00 | 0.00 | 89 | 1012.5 |
| 20260505084032 | 11 | 191 | 6.4 | 12.9 | 0.00 | 0.00 | 0.00 | 89 | 1012.5 |
| 20260505082703 | 11 | 227 | 8.0 | 16.1 | 0.00 | 0.00 | 0.00 | 89 | 1012.6 |
| 20260505082018 | 11 | 225 | 6.4 | 14.5 | 0.00 | 0.00 | 0.00 | 89 | 1012.8 |
| 20260505080903 | 11 | 228 | 6.4 | 16.1 | 0.00 | 0.00 | 0.00 | 89 | 1012.8 |
| 20260505080003 | 11 | 229 | 6.4 | 14.5 | 0.00 | 0.00 | 0.00 | 89 | 1012.7 |
| 20260505075403 | 11 | 224 | 6.4 | 14.5 | 0.00 | 0.00 | 0.00 | 89 | 1012.9 |
| 20260505074718 | 11 | 224 | 6.4 | 16.1 | 0.00 | 0.00 | 0.00 | 89 | 1012.9 |
| 20260505073603 | 11 | 230 | 6.4 | 14.5 | 0.00 | 0.00 | 0.00 | 88 | 1013.0 |
| 20260505072703 | 11 | 223 | 6.4 | 16.1 | 0.00 | 0.00 | 0.00 | 88 | 1013.0 |
| 20260505072233 | 11 | 223 | 6.4 | 16.1 | 0.00 | 0.00 | 0.00 | 88 | 1012.9 |
| 20260505070903 | 11 | 214 | 6.4 | 17.7 | 0.00 | 0.00 | 0.00 | 88 | 1012.9 |
| 20260505070431 | 11 | 217 | 8.0 | 19.3 | 0.00 | 0.00 | 0.00 | 88 | 1012.9 |
| 20260505065403 | 11 | 235 | 8.0 | 20.9 | 0.00 | 0.00 | 0.00 | 88 | 1012.8 |
| 20260505064717 | 11 | 225 | 8.0 | 19.3 | 0.00 | 0.00 | 0.00 | 88 | 1012.8 |
| 20260505063816 | 11 | 209 | 8.0 | 17.7 | 0.00 | 0.00 | 0.00 | 88 | 1012.8 |
| 20260505063133 | 11 | 209 | 6.4 | 19.3 | 0.00 | 0.00 | 0.00 | 88 | 1012.8 |
| 20260505061803 | 11 | 223 | 8.0 | 20.9 | 0.00 | 0.00 | 0.00 | 88 | 1012.8 |
| 20260505061332 | 11 | 222 | 8.0 | 20.9 | 0.00 | 0.00 | 0.00 | 88 | 1012.8 |
| 20260505060003 | 11 | 220 | 8.0 | 20.9 | 0.00 | 0.00 | 0.00 | 88 | 1012.7 |
| 20260505055618 | 11 | 222 | 8.0 | 20.9 | 0.00 | 0.00 | 0.00 | 88 | 1012.6 |
| 20260505054503 | 11 | 222 | 6.4 | 19.3 | 0.00 | 0.00 | 0.00 | 88 | 1012.7 |
| 20260505053816 | 11 | 226 | 6.4 | 14.5 | 0.00 | 0.00 | 0.00 | 88 | 1012.8 |
| 20260505052703 | 11 | 228 | 9.7 | 19.3 | 0.00 | 0.00 | 0.00 | 88 | 1012.8 |
| 20260505051803 | 11 | 230 | 8.0 | 19.3 | 0.00 | 0.00 | 0.00 | 88 | 1012.8 |
| 20260505050903 | 11 | 218 | 8.0 | 24.1 | 0.00 | 0.00 | 0.00 | 88 | 1012.8 |
| 20260505040903 | 11 | 222 | 9.7 | 25.7 | 0.00 | 0.03 | 0.00 | 87 | 1013.3 |
| 20260505040217 | 11 | 229 | 9.7 | 25.7 | 0.00 | 0.03 | 0.00 | 86 | 1013.2 |
| 20260505035617 | 11 | 226 | 9.7 | 20.9 | 0.00 | 0.03 | 0.03 | 86 | 1013.3 |
| 20260505034503 | 11 | 223 | 9.7 | 22.5 | 0.00 | 0.03 | 0.03 | 86 | 1013.4 |
| 20260505033817 | 11 | 218 | 9.7 | 20.9 | 0.00 | 0.03 | 0.03 | 86 | 1013.4 |
| 20260505032703 | 11 | 224 | 8.0 | 22.5 | 0.00 | 0.03 | 0.03 | 85 | 1013.3 |
| 20260505032019 | 11 | 228 | 8.0 | 20.9 | 0.00 | 0.03 | 0.03 | 85 | 1013.3 |
| 20260505030903 | 12 | 223 | 9.7 | 24.1 | 0.00 | 0.03 | 0.03 | 84 | 1013.4 |
| 20260505030432 | 12 | 222 | 9.7 | 24.1 | 0.00 | 0.03 | 0.03 | 84 | 1013.4 |
| 20260505025403 | 12 | 222 | 9.7 | 22.5 | 0.00 | 0.03 | 0.03 | 84 | 1013.4 |
| 20260505024503 | 12 | 225 | 8.0 | 16.1 | 0.00 | 0.03 | 0.03 | 84 | 1013.5 |
| 20260505023603 | 12 | 222 | 9.7 | 20.9 | 0.00 | 0.03 | 0.03 | 83 | 1013.5 |
| 20260505022703 | 12 | 223 | 11.3 | 25.7 | 0.00 | 0.03 | 0.03 | 83 | 1013.5 |
| 20260505021803 | 12 | 216 | 9.7 | 24.1 | 0.00 | 0.03 | 0.03 | 84 | 1013.5 |
| 20260505021117 | 11 | 214 | 8.0 | 24.1 | 0.00 | 0.03 | 0.03 | 83 | 1013.5 |
| 20260505020003 | 12 | 225 | 9.7 | 24.1 | 0.00 | 0.03 | 0.03 | 83 | 1013.3 |
| 20260505015403 | 11 | 219 | 9.7 | 20.9 | 0.00 | 0.03 | 0.03 | 83 | 1013.3 |
| 20260505014503 | 12 | 216 | 8.0 | 22.5 | 0.00 | 0.03 | 0.03 | 83 | 1013.2 |
| 20260505013817 | 12 | 221 | 9.7 | 20.9 | 0.00 | 0.03 | 0.03 | 82 | 1013.1 |
| 20260505012918 | 12 | 232 | 9.7 | 22.5 | 0.00 | 0.03 | 0.03 | 82 | 1012.9 |
| 20260505011803 | 12 | 223 | 11.3 | 25.7 | 0.00 | 0.03 | 0.03 | 82 | 1012.8 |
| 20260505010903 | 12 | 220 | 9.7 | 25.7 | 0.00 | 0.03 | 0.03 | 81 | 1012.6 |
| 20260505010003 | 12 | 219 | 8.0 | 19.3 | 0.00 | 0.03 | 0.03 | 81 | 1012.6 |
| 20260505005618 | 12 | 223 | 9.7 | 24.1 | 0.00 | 0.03 | 0.03 | 81 | 1012.5 |
| 20260505004503 | 12 | 218 | 9.7 | 20.9 | 0.00 | 0.03 | 0.03 | 81 | 1012.3 |
| 20260505003603 | 12 | 216 | 9.7 | 25.7 | 0.00 | 0.03 | 0.03 | 81 | 1012.1 |
| 20260505002703 | 12 | 222 | 9.7 | 25.7 | 0.00 | 0.03 | 0.03 | 80 | 1012.0 |
| 20260505001803 | 12 | 222 | 9.7 | 24.1 | 0.00 | 0.03 | 0.03 | 80 | 1011.8 |
| 20260505001116 | 12 | 225 | 8.0 | 25.7 | 0.00 | 0.03 | 0.03 | 79 | 1011.8 |
| 20260505000433 | 12 | 227 | 9.7 | 29.0 | 0.00 | 0.03 | 0.03 | 79 | 1011.7 |
| 20260504235403 | 12 | 228 | 9.7 | 22.5 | 0.00 | 0.03 | 0.03 | 78 | 1011.7 |
| 20260504234503 | 12 | 228 | 11.3 | 25.7 | 0.00 | 0.03 | 0.03 | 78 | 1011.5 |
| 20260504233603 | 12 | 219 | 6.4 | 16.1 | 0.00 | 0.03 | 0.03 | 79 | 1011.4 |
| 20260504232703 | 12 | 215 | 8.0 | 17.7 | 0.00 | 0.03 | 0.03 | 80 | 1011.4 |
| 20260504232017 | 12 | 221 | 9.7 | 25.7 | 0.00 | 0.03 | 0.03 | 78 | 1011.4 |
| 20260504230903 | 12 | 215 | 9.7 | 24.1 | 0.00 | 0.03 | 0.03 | 78 | 1011.2 |
| 20260504230003 | 12 | 211 | 8.0 | 22.5 | 0.00 | 0.03 | 0.03 | 78 | 1011.2 |
| 20260504225403 | 12 | 218 | 11.3 | 24.1 | 0.00 | 0.03 | 0.03 | 77 | 1011.1 |
| 20260504224503 | 12 | 220 | 9.7 | 22.5 | 0.00 | 0.03 | 0.03 | 77 | 1011.1 |
| 20260504223603 | 12 | 219 | 11.3 | 27.4 | 0.00 | 0.03 | 0.03 | 77 | 1011.1 |
| 20260504222703 | 12 | 219 | 9.7 | 20.9 | 0.00 | 0.03 | 0.03 | 77 | 1011.2 |
| 20260504222016 | 12 | 221 | 11.3 | 25.7 | 0.00 | 0.03 | 0.03 | 76 | 1011.2 |
| 20260504221118 | 13 | 222 | 12.9 | 27.4 | 0.00 | 0.03 | 0.03 | 74 | 1011.1 |
| 20260504220003 | 13 | 227 | 12.9 | 33.8 | 0.00 | 0.03 | 0.03 | 74 | 1011.3 |
| 20260504215403 | 13 | 227 | 11.3 | 32.2 | 0.00 | 0.03 | 0.03 | 73 | 1011.2 |
| 20260504214503 | 13 | 209 | 11.3 | 25.7 | 0.00 | 0.03 | 0.03 | 72 | 1011.3 |
| 20260504213817 | 13 | 217 | 11.3 | 27.4 | 0.00 | 0.03 | 0.03 | 73 | 1011.2 |
| 20260504212917 | 14 | 218 | 11.3 | 24.1 | 0.00 | 0.03 | 0.03 | 72 | 1011.3 |
| 20260504211803 | 14 | 212 | 11.3 | 24.1 | 0.00 | 0.03 | 0.03 | 72 | 1011.3 |
| 20260504211117 | 14 | 205 | 12.9 | 25.7 | 0.00 | 0.03 | 0.03 | 72 | 1011.3 |
| 20260504210217 | 14 | 207 | 14.5 | 29.0 | 0.00 | 0.03 | 0.03 | 72 | 1011.1 |
| 20260504205403 | 14 | 209 | 16.1 | 29.0 | 0.00 | 0.03 | 0.03 | 72 | 1010.9 |
| 20260504204503 | 14 | 211 | 12.9 | 25.7 | 0.00 | 0.03 | 0.03 | 72 | 1010.9 |
| 20260504203603 | 14 | 216 | 14.5 | 29.0 | 0.00 | 0.03 | 0.03 | 72 | 1010.8 |
| 20260504202703 | 14 | 215 | 16.1 | 30.6 | 0.00 | 0.03 | 0.03 | 70 | 1010.5 |
| 20260504201803 | 15 | 213 | 12.9 | 30.6 | 0.00 | 0.03 | 0.03 | 70 | 1010.6 |
| 20260504201117 | 15 | 219 | 14.5 | 30.6 | 0.00 | 0.03 | 0.03 | 70 | 1010.7 |
| 20260504200003 | 15 | 214 | 12.9 | 32.2 | 0.00 | 0.03 | 0.03 | 68 | 1010.7 |
| 20260504195403 | 15 | 213 | 14.5 | 27.4 | 0.00 | 0.03 | 0.03 | 66 | 1010.7 |
| 20260504194503 | 16 | 209 | 14.5 | 25.7 | 0.00 | 0.03 | 0.03 | 65 | 1010.9 |
| 20260504193603 | 16 | 211 | 14.5 | 33.8 | 0.00 | 0.03 | 0.03 | 63 | 1010.8 |
| 20260504192703 | 16 | 221 | 14.5 | 30.6 | 0.00 | 0.03 | 0.03 | 64 | 1010.8 |
| 20260504191803 | 16 | 219 | 12.9 | 25.7 | 0.00 | 0.03 | 0.03 | 62 | 1011.0 |
| 20260504191116 | 16 | 216 | 11.3 | 25.7 | 0.00 | 0.03 | 0.03 | 64 | 1011.0 |
| 20260504190003 | 16 | 218 | 14.5 | 33.8 | 0.00 | 0.03 | 0.03 | 67 | 1011.1 |
| 20260504185403 | 16 | 221 | 14.5 | 33.8 | 0.00 | 0.03 | 0.03 | 67 | 1011.1 |
| 20260504184717 | 16 | 219 | 16.1 | 32.2 | 0.00 | 0.03 | 0.03 | 68 | 1011.0 |
| 20260504183603 | 15 | 219 | 16.1 | 35.4 | 0.00 | 0.03 | 0.03 | 68 | 1011.0 |
| 20260504182703 | 16 | 218 | 14.5 | 32.2 | 0.00 | 0.03 | 0.03 | 68 | 1010.7 |
| 20260504181803 | 16 | 223 | 14.5 | 32.2 | 0.00 | 0.03 | 0.03 | 68 | 1010.5 |
| 20260504180903 | 16 | 215 | 14.5 | 35.4 | 0.00 | 0.03 | 0.03 | 68 | 1010.6 |
| 20260504180433 | 16 | 216 | 16.1 | 35.4 | 0.00 | 0.03 | 0.03 | 69 | 1010.7 |
| 20260504175403 | 16 | 218 | 12.9 | 25.7 | 0.00 | 0.03 | 0.03 | 66 | 1010.8 |
| 20260504174503 | 16 | 230 | 14.5 | 30.6 | 0.00 | 0.03 | 0.03 | 66 | 1011.0 |
| 20260504173603 | 16 | 222 | 12.9 | 22.5 | 0.00 | 0.03 | 0.03 | 67 | 1010.9 |
| 20260504172703 | 16 | 224 | 14.5 | 29.0 | 0.00 | 0.03 | 0.03 | 66 | 1010.9 |
| 20260504171803 | 16 | 225 | 11.3 | 30.6 | 0.00 | 0.03 | 0.03 | 66 | 1011.0 |
| 20260504170903 | 16 | 214 | 11.3 | 27.4 | 0.00 | 0.05 | 0.03 | 67 | 1011.1 |
| 20260504170217 | 16 | 210 | 9.7 | 22.5 | 0.00 | 0.05 | 0.03 | 71 | 1011.0 |
| 20260504160217 | 16 | 232 | 12.9 | 33.8 | 0.00 | 0.13 | 0.03 | 63 | 1011.4 |
| 20260504150903 | 15 | 229 | 11.3 | 29.0 | 0.00 | 0.33 | 0.03 | 63 | 1011.9 |
| 20260504150216 | 15 | 232 | 12.9 | 33.8 | 0.00 | 0.33 | 0.03 | 63 | 1011.9 |
| 20260504140903 | 13 | 231 | 14.5 | 35.4 | 0.00 | 0.41 | 0.03 | 71 | 1012.0 |